Harrisburg, IL

5:42 PM CST on December 15, 2019 (GMT -0600)
Harrisburg-Raleigh

Weather History for KHSB - October, 2019

Change the Weather History Date:

Wednesday, October 2, 2019

  Actual Average (WUND) Record (WUND)
Temperature  
Mean Temperature 79 °F -  
Max Temperature 95 °F - - (-1)
Min Temperature 64 °F - - (-1)
Cooling Degree Days 14    
Growing Degree Days 29 (Base 50)    
Moisture  
Dew Point 60 °F    
Average Humidity 59    
Maximum Humidity 89    
Minimum Humidity 23    
Precipitation  
Precipitation 0.00 in - - ()
Sea Level Pressure  
Sea Level Pressure 29.97 in    
Wind  
Wind Speed 3 mph ()    
Max Wind Speed 16 mph    
Max Gust Speed 21 mph    
Visibility 9.6 miles    
Events      
Averages and records for this station are not official NWS values.
T = Trace of Precipitation, MM = Missing Value Source: Averaged Metar Reports

Daily Weather History Graph

Daily Weather History Graph

Search for Another Location

Airport or City:

Astronomy

Oct. 02, 2019 Rise Set
Actual Time 6:50 AM CDT 6:36 PM CDT
Civil Twilight 6:24 AM CDT 7:02 PM CDT
Nautical Twilight 5:53 AM CDT 7:32 PM CDT
Astronomical Twilight 5:23 AM CDT 8:03 PM CDT
Moon 11:11 AM CDT (10/2) 9:34 PM CDT (10/2)
Length of Visible Light 12h 37m
Length of Day
11h 45m
Waxing Crescent, 20% of the Moon is Illuminated
Oct 2
Waxing Crescent
Oct 5
First Quarter
Oct 13
Full
Oct 21
Last Quarter
Oct 27
New

Hourly Weather History & Observations

Time (CDT) Temp. Heat Index Dew Point Humidity Pressure Visibility Wind Dir Wind Speed Gust Speed Precip Events Conditions
12:15 AM 72.1 °F - 65.3 °F 79% 29.98 in 10.0 mi Calm Calm - N/A   Clear
12:35 AM 70.7 °F - 65.3 °F 83% 29.97 in 10.0 mi Calm Calm - N/A   Clear
12:55 AM 70.7 °F - 65.3 °F 83% 29.97 in 10.0 mi Calm Calm - N/A   Clear
1:15 AM 69.8 °F - 66.0 °F 88% 29.97 in 10.0 mi Calm Calm - N/A   Clear
1:35 AM 68.4 °F - 64.6 °F 88% 29.98 in 10.0 mi Calm Calm - N/A   Clear
1:55 AM 69.3 °F - 64.9 °F 86% 29.97 in 10.0 mi Calm Calm - N/A   Clear
2:15 AM 68.0 °F - 64.4 °F 88% 29.97 in 10.0 mi Calm Calm - N/A   Clear
2:35 AM 66.9 °F - 63.7 °F 89% 29.96 in 10.0 mi Calm Calm - N/A   Clear
2:55 AM 64.9 °F - 61.7 °F 89% 29.96 in 10.0 mi Calm Calm - N/A   Clear
3:15 AM 66.2 °F - 62.8 °F 89% 29.96 in 10.0 mi Calm Calm - N/A   Clear
3:35 AM 66.4 °F - 63.1 °F 89% 29.96 in 10.0 mi Calm Calm - N/A   Clear
3:55 AM 68.4 °F - 65.1 °F 89% 29.96 in 10.0 mi Calm Calm - N/A   Clear
4:15 AM 65.8 °F - 62.6 °F 89% 29.96 in 10.0 mi Calm Calm - N/A   Clear
4:35 AM 66.4 °F - 63.1 °F 89% 29.96 in 10.0 mi Calm Calm - N/A   Clear
4:55 AM 66.2 °F - 62.8 °F 89% 29.97 in 10.0 mi Calm Calm - N/A   Clear
5:15 AM 65.5 °F - 62.1 °F 89% 29.97 in 10.0 mi Calm Calm - N/A   Clear
5:35 AM 64.6 °F - 61.3 °F 89% 29.98 in 10.0 mi Calm Calm - N/A   Clear
5:55 AM 64.8 °F - 61.5 °F 89% 29.99 in 10.0 mi Calm Calm - N/A   Clear
6:15 AM 65.1 °F - 61.9 °F 89% 30.00 in 10.0 mi Calm Calm - N/A   Clear
6:35 AM 64.9 °F - 61.7 °F 89% 30.01 in 7.0 mi Calm Calm - N/A   Clear
6:55 AM 64.6 °F - 61.3 °F 89% 30.01 in 7.0 mi Calm Calm - N/A   Clear
7:15 AM 65.5 °F - 62.2 °F 89% 30.01 in 7.0 mi Calm Calm - N/A   Clear
7:35 AM 67.1 °F - 63.9 °F 89% 30.02 in 7.0 mi Calm Calm - N/A   Clear
7:55 AM 69.3 °F - 65.7 °F 88% 30.02 in 10.0 mi Calm Calm - N/A   Clear
8:15 AM 72.0 °F - 66.7 °F 84% 30.02 in 10.0 mi Calm Calm - N/A   Clear
8:55 AM 78.3 °F - 65.8 °F 65% 30.02 in 10.0 mi SW 4.6 mph - N/A   Clear
9:15 AM 81.0 °F 82.6 °F 64.6 °F 57% 30.02 in 10.0 mi WSW 5.8 mph - N/A   Clear
9:35 AM 83.3 °F 84.6 °F 64.0 °F 52% 30.03 in 10.0 mi WSW 5.8 mph - N/A   Clear
9:55 AM 85.1 °F 85.9 °F 62.8 °F 47% 30.03 in 10.0 mi WSW 8.1 mph - N/A   Clear
10:15 AM 87.3 °F 87.7 °F 62.1 °F 43% 30.02 in 10.0 mi WSW 5.8 mph - N/A   Clear
10:35 AM 88.2 °F 88.1 °F 60.8 °F 40% 30.02 in 10.0 mi WSW 9.2 mph - N/A   Clear
10:55 AM 90.0 °F 89.4 °F 59.5 °F 36% 30.02 in 10.0 mi West 11.5 mph - N/A   Clear
11:15 AM 91.0 °F 90.0 °F 58.1 °F 33% 30.02 in 10.0 mi West 10.4 mph - N/A   Clear
11:35 AM 92.8 °F 91.4 °F 57.0 °F 30% 30.01 in 10.0 mi West 13.8 mph 17.3 mph N/A   Clear
11:55 AM 92.7 °F 90.9 °F 55.6 °F 29% 30.01 in 10.0 mi West 16.1 mph 19.6 mph N/A   Clear
12:15 PM 93.0 °F 91.1 °F 55.4 °F 28% 30.00 in 10.0 mi West 12.7 mph 20.7 mph N/A   Clear
12:35 PM 93.4 °F 91.3 °F 54.5 °F 27% 29.99 in 10.0 mi West 11.5 mph 17.3 mph N/A   Clear
12:55 PM 94.3 °F 92.1 °F 54.0 °F 26% 29.99 in 10.0 mi West 11.5 mph 18.4 mph N/A   Clear
1:15 PM 93.6 °F 91.2 °F 54.1 °F 26% 29.97 in 10.0 mi West 12.7 mph 19.6 mph N/A   Clear
1:35 PM 93.6 °F 91.8 °F 55.4 °F 28% 29.97 in 10.0 mi West 9.2 mph - N/A   Clear
1:55 PM 94.6 °F 92.0 °F 53.1 °F 24% 29.96 in 10.0 mi West 11.5 mph 20.7 mph N/A   Clear
2:15 PM 94.5 °F 92.1 °F 53.1 °F 25% 29.95 in 10.0 mi WSW 10.4 mph - N/A   Clear
2:35 PM 94.6 °F - 52.0 °F 23% 29.94 in 10.0 mi SW 6.9 mph - N/A   Clear
2:55 PM 94.6 °F - 52.3 °F 24% 29.94 in 10.0 mi SW 10.4 mph 16.1 mph N/A   Clear
3:15 PM 94.5 °F - 51.4 °F 23% 29.94 in 10.0 mi SW 16.1 mph - N/A   Clear
3:35 PM 94.5 °F - 51.4 °F 23% 29.93 in 10.0 mi WSW 12.7 mph 17.3 mph N/A   Clear
3:55 PM 94.6 °F - 50.9 °F 23% 29.93 in 10.0 mi SW 11.5 mph 19.6 mph N/A   Clear
4:15 PM 93.6 °F - 50.9 °F 23% 29.93 in 10.0 mi WSW 12.7 mph 17.3 mph N/A   Clear
4:35 PM 93.2 °F 90.8 °F 53.2 °F 26% 29.93 in 10.0 mi West 8.1 mph 17.3 mph N/A   Clear
4:55 PM 93.0 °F 90.6 °F 53.8 °F 26% 29.92 in 10.0 mi SW 8.1 mph - N/A   Clear
5:15 PM 92.5 °F 90.4 °F 54.7 °F 28% 29.93 in 10.0 mi SW 8.1 mph - N/A   Clear
5:35 PM 91.9 °F 90.0 °F 55.2 °F 29% 29.93 in 10.0 mi WSW 9.2 mph - N/A   Clear
5:55 PM 91.0 °F 89.2 °F 55.6 °F 30% 29.93 in 10.0 mi WSW 5.8 mph - N/A   Clear
6:15 PM 89.4 °F 87.9 °F 56.5 °F 33% 29.94 in 10.0 mi WSW 3.5 mph - N/A   Clear
6:35 PM 87.1 °F 85.7 °F 56.7 °F 35% 29.93 in 10.0 mi SW 4.6 mph - N/A   Clear
6:55 PM 84.6 °F 83.5 °F 56.3 °F 38% 29.94 in 3.0 mi Calm Calm - N/A   Haze
7:15 PM 81.3 °F 81.2 °F 57.0 °F 43% 29.93 in 4.0 mi Calm Calm - N/A   Haze
7:35 PM 79.0 °F - 57.9 °F 48% 29.94 in 7.0 mi Calm Calm - N/A   Clear
7:55 PM 77.0 °F - 58.6 °F 53% 29.94 in 10.0 mi Calm Calm - N/A   Clear
8:15 PM 76.1 °F - 60.1 °F 57% 29.94 in 10.0 mi Calm Calm - N/A   Clear
8:35 PM 73.4 °F - 60.8 °F 65% 29.94 in 10.0 mi Calm Calm - N/A   Clear
8:55 PM 71.8 °F - 61.2 °F 69% 29.94 in 10.0 mi Calm Calm - N/A   Clear
9:15 PM 72.1 °F - 61.7 °F 70% 29.94 in 10.0 mi Calm Calm - N/A   Clear
9:35 PM 70.9 °F - 62.6 °F 75% 29.94 in 10.0 mi Calm Calm - N/A   Clear
9:55 PM 71.1 °F - 63.7 °F 77% 29.94 in 10.0 mi Calm Calm - N/A   Clear
10:15 PM 70.7 °F - 62.6 °F 75% 29.94 in 10.0 mi Calm Calm - N/A   Clear
10:35 PM 72.1 °F - 62.6 °F 72% 29.95 in 10.0 mi Calm Calm - N/A   Clear
10:55 PM 73.6 °F - 62.1 °F 67% 29.96 in 10.0 mi Calm Calm - N/A   Clear
11:15 PM 73.4 °F - 61.9 °F 67% 29.96 in 10.0 mi Calm Calm - N/A   Clear
11:35 PM 73.0 °F - 62.1 °F 68% 29.96 in 10.0 mi Calm Calm - N/A   Clear
11:55 PM 70.9 °F - 63.1 °F 76% 29.97 in 10.0 mi Calm Calm - N/A   Clear